date,time,SUV Intensity [MED/Hr],UV Index,Daily total [MED],Since Last [MED]
16/04/2022,00:06:58,0.000,0.0,0.0,0.0
16/04/2022,00:07:58,0.001,0.0,0.0,0.0
16/04/2022,00:08:58,0.000,0.0,0.0,0.0
16/04/2022,00:09:58,0.000,0.0,0.0,0.0
16/04/2022,00:10:58,0.000,0.0,0.0,0.0
16/04/2022,00:11:58,0.001,0.0,0.0,0.0
16/04/2022,00:12:58,0.000,0.0,0.0,0.0
16/04/2022,00:13:58,-0.001,0.0,0.0,0.0
16/04/2022,00:14:59,0.000,0.0,0.0,0.0
16/04/2022,00:16:07,-0.000,0.0,0.0,0.0
16/04/2022,00:16:58,-0.001,0.0,0.0,0.0
16/04/2022,00:17:58,-0.001,0.0,0.0,0.0
16/04/2022,00:18:58,0.000,0.0,0.0,0.0
16/04/2022,00:19:59,0.000,0.0,0.0,0.0
16/04/2022,00:20:59,-0.000,0.0,0.0,0.0
16/04/2022,00:21:58,-0.000,0.0,0.0,0.0
16/04/2022,00:22:58,0.000,0.0,0.0,0.0
16/04/2022,00:23:58,0.001,0.0,0.0,0.0
16/04/2022,00:24:58,-0.001,0.0,0.0,0.0
16/04/2022,00:26:07,0.000,0.0,0.0,0.0
16/04/2022,00:27:58,-0.001,0.0,0.0,0.0
16/04/2022,00:28:58,0.001,0.0,0.0,0.0
16/04/2022,00:29:58,0.000,0.0,0.0,0.0
16/04/2022,00:30:58,-0.000,0.0,0.0,0.0
16/04/2022,00:31:58,0.001,0.0,0.0,0.0
16/04/2022,00:32:58,0.000,0.0,0.0,0.0
16/04/2022,00:33:59,0.000,0.0,0.0,0.0
16/04/2022,00:34:58,0.000,0.0,0.0,0.0
16/04/2022,00:36:06,0.001,0.0,0.0,0.0
16/04/2022,00:36:57,0.000,0.0,0.0,0.0
16/04/2022,00:37:58,0.000,0.0,0.0,0.0
16/04/2022,00:38:58,0.000,0.0,0.0,0.0
16/04/2022,00:39:58,0.000,0.0,0.0,0.0
16/04/2022,00:40:58,0.001,0.0,0.0,0.0
16/04/2022,00:42:06,-0.001,0.0,0.0,0.0
16/04/2022,00:43:59,0.000,0.0,0.0,0.0
16/04/2022,00:44:58,0.001,0.0,0.0,0.0
16/04/2022,00:45:59,0.001,0.0,0.0,0.0
16/04/2022,00:46:58,0.002,0.0,0.0,0.0
16/04/2022,00:47:58,0.000,0.0,0.0,0.0
16/04/2022,00:48:58,0.000,0.0,0.0,0.0
16/04/2022,00:49:58,-0.001,0.0,0.0,0.0
16/04/2022,00:50:58,-0.000,0.0,0.0,0.0
16/04/2022,00:51:58,0.000,0.0,0.0,0.0
16/04/2022,00:52:58,0.001,0.0,0.0,0.0
16/04/2022,00:53:58,0.001,0.0,0.0,0.0
16/04/2022,00:54:58,0.000,0.0,0.0,0.0
16/04/2022,00:55:58,0.001,0.0,0.0,0.0
16/04/2022,00:56:58,0.000,0.0,0.0,0.0
16/04/2022,00:57:59,0.000,0.0,0.0,0.0
16/04/2022,00:58:58,0.000,0.0,0.0,0.0
16/04/2022,00:59:58,-0.000,0.0,0.0,0.0
16/04/2022,01:00:58,0.001,0.0,0.0,0.0
16/04/2022,01:01:58,-0.000,0.0,0.0,0.0
16/04/2022,01:02:59,0.000,0.0,0.0,0.0
16/04/2022,01:03:58,0.001,0.0,0.0,0.0
16/04/2022,01:04:59,0.000,0.0,0.0,0.0
16/04/2022,01:05:58,0.000,0.0,0.0,0.0
16/04/2022,01:06:58,-0.000,0.0,0.0,0.0
16/04/2022,01:07:58,0.000,0.0,0.0,0.0
16/04/2022,01:08:58,0.001,0.0,0.0,0.0
16/04/2022,01:09:58,0.000,0.0,0.0,0.0
16/04/2022,01:11:07,0.000,0.0,0.0,0.0
16/04/2022,01:12:00,0.000,0.0,0.0,0.0
16/04/2022,01:12:59,0.001,0.0,0.0,0.0
16/04/2022,01:13:59,-0.001,0.0,0.0,0.0
16/04/2022,01:14:58,0.001,0.0,0.0,0.0
16/04/2022,01:15:58,0.001,0.0,0.0,0.0
16/04/2022,01:16:58,0.002,0.0,0.0,0.0
16/04/2022,01:17:58,0.000,0.0,0.0,0.0
16/04/2022,01:18:58,0.001,0.0,0.0,0.0
16/04/2022,01:20:06,-0.000,0.0,0.0,0.0
16/04/2022,01:21:58,0.001,0.0,0.0,0.0
16/04/2022,01:22:58,-0.000,0.0,0.0,0.0
16/04/2022,01:24:07,0.001,0.0,0.0,0.0
16/04/2022,01:24:58,0.000,0.0,0.0,0.0
16/04/2022,01:25:58,0.000,0.0,0.0,0.0
16/04/2022,01:26:59,0.001,0.0,0.0,0.0
16/04/2022,01:27:58,-0.000,0.0,0.0,0.0
16/04/2022,01:28:58,0.001,0.0,0.0,0.0
16/04/2022,01:29:58,0.001,0.0,0.0,0.0
16/04/2022,01:30:59,0.001,0.0,0.0,0.0
16/04/2022,01:31:58,0.000,0.0,0.0,0.0
16/04/2022,01:32:58,-0.001,0.0,0.0,0.0
16/04/2022,01:33:58,0.000,0.0,0.0,0.0
16/04/2022,01:34:59,0.001,0.0,0.0,0.0
16/04/2022,01:35:58,0.001,0.0,0.0,0.0
16/04/2022,01:37:06,0.000,0.0,0.0,0.0
16/04/2022,01:37:58,0.000,0.0,0.0,0.0
16/04/2022,01:38:58,0.001,0.0,0.0,0.0
16/04/2022,01:39:58,0.001,0.0,0.0,0.0
16/04/2022,01:40:58,0.001,0.0,0.0,0.0
16/04/2022,01:41:58,-0.000,0.0,0.0,0.0
16/04/2022,01:43:07,0.001,0.0,0.0,0.0
16/04/2022,01:44:59,-0.000,0.0,0.0,0.0
16/04/2022,01:45:58,0.001,0.0,0.0,0.0
16/04/2022,01:46:58,0.001,0.0,0.0,0.0
16/04/2022,01:47:58,0.001,0.0,0.0,0.0
16/04/2022,01:48:58,0.001,0.0,0.0,0.0
16/04/2022,01:49:58,0.001,0.0,0.0,0.0
16/04/2022,01:50:59,0.000,0.0,0.0,0.0
16/04/2022,01:51:58,0.001,0.0,0.0,0.0
16/04/2022,01:53:07,0.000,0.0,0.0,0.0
16/04/2022,01:53:58,0.001,0.0,0.0,0.0
16/04/2022,01:54:59,0.002,0.0,0.0,0.0
16/04/2022,01:55:58,0.001,0.0,0.0,0.0
16/04/2022,01:56:58,0.001,0.0,0.0,0.0
16/04/2022,01:58:00,0.001,0.0,0.0,0.0
16/04/2022,01:58:59,0.001,0.0,0.0,0.0
16/04/2022,01:59:58,0.001,0.0,0.0,0.0
16/04/2022,02:00:58,0.001,0.0,0.0,0.0
16/04/2022,02:01:58,0.001,0.0,0.0,0.0
16/04/2022,02:02:59,0.001,0.0,0.0,0.0
16/04/2022,02:03:58,0.001,0.0,0.0,0.0
16/04/2022,02:04:58,-0.000,0.0,0.0,0.0
16/04/2022,02:06:06,0.002,0.0,0.0,0.0
16/04/2022,02:06:58,-0.000,0.0,0.0,0.0
16/04/2022,02:07:58,0.000,0.0,0.0,0.0
16/04/2022,02:08:58,0.001,0.0,0.0,0.0
16/04/2022,02:09:59,-0.000,0.0,0.0,0.0
16/04/2022,02:10:58,0.002,0.0,0.0,0.0
16/04/2022,02:11:59,0.002,0.0,0.0,0.0
16/04/2022,02:12:59,0.001,0.0,0.0,0.0
16/04/2022,02:13:58,0.000,0.0,0.0,0.0
16/04/2022,02:14:58,0.001,0.0,0.0,0.0
16/04/2022,02:15:58,0.001,0.0,0.0,0.0
16/04/2022,02:16:58,-0.000,0.0,0.0,0.0
16/04/2022,02:17:58,0.002,0.0,0.0,0.0
16/04/2022,02:18:58,0.002,0.0,0.0,0.0
16/04/2022,02:19:59,0.001,0.0,0.0,0.0
16/04/2022,02:20:58,0.002,0.0,0.0,0.0
16/04/2022,02:21:59,0.001,0.0,0.0,0.0
16/04/2022,02:22:58,0.001,0.0,0.0,0.0
16/04/2022,02:23:58,0.001,0.0,0.0,0.0
16/04/2022,02:25:06,0.001,0.0,0.0,0.0
16/04/2022,02:25:57,0.001,0.0,0.0,0.0
16/04/2022,02:26:58,0.001,0.0,0.0,0.0
16/04/2022,02:28:07,0.001,0.0,0.0,0.0
16/04/2022,02:29:59,0.001,0.0,0.0,0.0
16/04/2022,02:30:59,0.001,0.0,0.0,0.0
16/04/2022,02:31:58,0.001,0.0,0.0,0.0
16/04/2022,02:32:58,0.001,0.0,0.0,0.0
16/04/2022,02:34:00,0.001,0.0,0.0,0.0
16/04/2022,02:34:58,0.001,0.0,0.0,0.0
16/04/2022,02:35:58,0.001,0.0,0.0,0.0
16/04/2022,02:36:58,0.001,0.0,0.0,0.0
16/04/2022,02:38:06,0.001,0.0,0.0,0.0
16/04/2022,02:38:57,0.002,0.0,0.0,0.0
16/04/2022,02:39:58,-0.000,0.0,0.0,0.0
16/04/2022,02:41:07,0.002,0.0,0.0,0.0
16/04/2022,02:41:58,0.000,0.0,0.0,0.0
16/04/2022,02:42:58,0.001,0.0,0.0,0.0
16/04/2022,02:43:59,0.001,0.0,0.0,0.0
16/04/2022,02:44:58,0.000,0.0,0.0,0.0
16/04/2022,02:45:59,0.000,0.0,0.0,0.0
16/04/2022,02:46:58,0.002,0.0,0.0,0.0
16/04/2022,02:47:58,0.001,0.0,0.0,0.0
16/04/2022,02:48:58,0.001,0.0,0.0,0.0
16/04/2022,02:49:59,0.001,0.0,0.0,0.0
16/04/2022,02:50:58,0.001,0.0,0.0,0.0
16/04/2022,02:51:57,0.001,0.0,0.0,0.0
16/04/2022,02:52:58,0.001,0.0,0.0,0.0
16/04/2022,02:53:58,0.002,0.0,0.0,0.0
16/04/2022,02:54:58,0.001,0.0,0.0,0.0
16/04/2022,02:55:58,0.001,0.0,0.0,0.0
16/04/2022,02:57:06,0.001,0.0,0.0,0.0
16/04/2022,02:57:57,0.001,0.0,0.0,0.0
16/04/2022,02:58:58,0.001,0.0,0.0,0.0
16/04/2022,02:59:58,0.001,0.0,0.0,0.0
16/04/2022,03:00:59,0.001,0.0,0.0,0.0
16/04/2022,03:01:58,0.001,0.0,0.0,0.0
16/04/2022,03:02:57,0.001,0.0,0.0,0.0
16/04/2022,03:04:01,0.001,0.0,0.0,0.0
16/04/2022,03:04:58,0.001,0.0,0.0,0.0
16/04/2022,03:06:00,0.001,0.0,0.0,0.0
16/04/2022,03:07:07,0.001,0.0,0.0,0.0
16/04/2022,03:07:58,0.001,0.0,0.0,0.0
16/04/2022,03:08:58,0.001,0.0,0.0,0.0
16/04/2022,03:10:07,0.001,0.0,0.0,0.0
16/04/2022,03:11:59,0.001,0.0,0.0,0.0
16/04/2022,03:12:58,0.001,0.0,0.0,0.0
16/04/2022,03:13:58,0.001,0.0,0.0,0.0
16/04/2022,03:14:59,0.001,0.0,0.0,0.0
16/04/2022,03:15:59,0.001,0.0,0.0,0.0
16/04/2022,03:16:58,-0.000,0.0,0.0,0.0
16/04/2022,03:17:59,0.001,0.0,0.0,0.0
16/04/2022,03:18:58,0.001,0.0,0.0,0.0
16/04/2022,03:19:59,0.001,0.0,0.0,0.0
16/04/2022,03:20:59,0.001,0.0,0.0,0.0
16/04/2022,03:21:58,0.001,0.0,0.0,0.0
16/04/2022,03:23:06,0.002,0.0,0.0,0.0
16/04/2022,03:23:58,0.001,0.0,0.0,0.0
16/04/2022,03:24:59,-0.000,0.0,0.0,0.0
16/04/2022,03:25:59,0.000,0.0,0.0,0.0
16/04/2022,03:26:58,0.001,0.0,0.0,0.0
16/04/2022,03:28:15,0.001,0.0,0.0,0.0
16/04/2022,03:29:59,0.001,0.0,0.0,0.0
16/04/2022,03:30:58,0.001,0.0,0.0,0.0
16/04/2022,03:31:58,0.001,0.0,0.0,0.0
16/04/2022,03:32:58,0.001,0.0,0.0,0.0
16/04/2022,03:33:59,0.001,0.0,0.0,0.0
16/04/2022,03:34:58,0.001,0.0,0.0,0.0
16/04/2022,03:36:06,0.001,0.0,0.0,0.0
16/04/2022,03:36:58,0.001,0.0,0.0,0.0
16/04/2022,03:38:00,0.000,0.0,0.0,0.0
16/04/2022,03:38:59,0.001,0.0,0.0,0.0
16/04/2022,03:39:58,0.001,0.0,0.0,0.0
16/04/2022,03:40:58,0.001,0.0,0.0,0.0
16/04/2022,03:41:58,-0.000,0.0,0.0,0.0
16/04/2022,03:42:59,0.000,0.0,0.0,0.0
16/04/2022,03:43:58,0.001,0.0,0.0,0.0
16/04/2022,03:44:58,0.001,0.0,0.0,0.0
16/04/2022,03:45:58,0.001,0.0,0.0,0.0
16/04/2022,03:46:59,0.001,0.0,0.0,0.0
16/04/2022,03:47:58,-0.000,0.0,0.0,0.0
16/04/2022,03:49:07,0.001,0.0,0.0,0.0
16/04/2022,03:51:07,0.001,0.0,0.0,0.0
16/04/2022,03:53:07,0.001,0.0,0.0,0.0
16/04/2022,03:54:59,0.001,0.0,0.0,0.0
16/04/2022,03:55:59,0.001,0.0,0.0,0.0
16/04/2022,03:56:58,-0.001,0.0,0.0,0.0
16/04/2022,03:57:59,0.000,0.0,0.0,0.0
16/04/2022,03:58:58,0.001,0.0,0.0,0.0
16/04/2022,03:59:59,0.001,0.0,0.0,0.0
16/04/2022,04:00:58,0.001,0.0,0.0,0.0
16/04/2022,04:01:59,0.001,0.0,0.0,0.0
16/04/2022,04:02:59,0.001,0.0,0.0,0.0
16/04/2022,04:03:58,0.001,0.0,0.0,0.0
16/04/2022,04:04:59,0.000,0.0,0.0,0.0
16/04/2022,04:05:59,0.000,0.0,0.0,0.0
16/04/2022,04:06:58,0.000,0.0,0.0,0.0
16/04/2022,04:07:59,0.001,0.0,0.0,0.0
16/04/2022,04:08:59,0.000,0.0,0.0,0.0
16/04/2022,04:09:59,0.000,0.0,0.0,0.0
16/04/2022,04:10:58,0.001,0.0,0.0,0.0
16/04/2022,04:11:59,-0.000,0.0,0.0,0.0
16/04/2022,04:12:59,0.001,0.0,0.0,0.0
16/04/2022,04:13:58,0.001,0.0,0.0,0.0
16/04/2022,04:14:59,0.001,0.0,0.0,0.0
16/04/2022,04:15:58,0.001,0.0,0.0,0.0
16/04/2022,04:16:58,0.001,0.0,0.0,0.0
16/04/2022,04:17:58,0.001,0.0,0.0,0.0
16/04/2022,04:18:59,0.001,0.0,0.0,0.0
16/04/2022,04:19:59,0.000,0.0,0.0,0.0
16/04/2022,04:20:58,-0.000,0.0,0.0,0.0
16/04/2022,04:21:59,0.001,0.0,0.0,0.0
16/04/2022,04:22:59,0.001,0.0,0.0,0.0
16/04/2022,04:23:58,0.000,0.0,0.0,0.0
16/04/2022,04:24:59,0.001,0.0,0.0,0.0
16/04/2022,04:25:58,0.001,0.0,0.0,0.0
16/04/2022,04:26:59,0.000,0.0,0.0,0.0
16/04/2022,04:27:59,0.001,0.0,0.0,0.0
16/04/2022,04:28:58,0.001,0.0,0.0,0.0
16/04/2022,04:29:58,0.001,0.0,0.0,0.0
16/04/2022,04:30:59,0.001,0.0,0.0,0.0
16/04/2022,04:32:06,0.000,0.0,0.0,0.0
16/04/2022,04:32:58,0.001,0.0,0.0,0.0
16/04/2022,04:33:58,0.001,0.0,0.0,0.0
16/04/2022,04:34:59,0.001,0.0,0.0,0.0
16/04/2022,04:35:58,0.001,0.0,0.0,0.0
16/04/2022,04:36:59,0.000,0.0,0.0,0.0
16/04/2022,04:37:58,0.001,0.0,0.0,0.0
16/04/2022,04:38:58,0.001,0.0,0.0,0.0
16/04/2022,04:39:59,0.001,0.0,0.0,0.0
16/04/2022,04:40:59,0.001,0.0,0.0,0.0
16/04/2022,04:42:07,0.001,0.0,0.0,0.0
16/04/2022,04:43:00,0.001,0.0,0.0,0.0
16/04/2022,04:43:58,0.001,0.0,0.0,0.0
16/04/2022,04:45:07,0.000,0.0,0.0,0.0
16/04/2022,04:45:58,0.001,0.0,0.0,0.0
16/04/2022,04:46:58,0.001,0.0,0.0,0.0
16/04/2022,04:47:59,0.001,0.0,0.0,0.0
16/04/2022,04:48:58,0.001,0.0,0.0,0.0
16/04/2022,04:49:59,0.001,0.0,0.0,0.0
16/04/2022,04:50:58,0.001,0.0,0.0,0.0
16/04/2022,04:52:00,-0.000,0.0,0.0,0.0
16/04/2022,04:52:59,0.001,0.0,0.0,0.0
16/04/2022,04:53:58,0.000,0.0,0.0,0.0
16/04/2022,04:54:59,0.001,0.0,0.0,0.0
16/04/2022,04:55:58,0.001,0.0,0.0,0.0
16/04/2022,04:56:59,0.001,0.0,0.0,0.0
16/04/2022,04:57:58,0.001,0.0,0.0,0.0
16/04/2022,04:58:59,0.001,0.0,0.0,0.0
16/04/2022,04:59:58,0.001,0.0,0.0,0.0
16/04/2022,05:01:07,0.001,0.0,0.0,0.0
16/04/2022,05:01:59,0.001,0.0,0.0,0.0
16/04/2022,05:02:58,0.002,0.0,0.0,0.0
16/04/2022,05:03:59,0.000,0.0,0.0,0.0
16/04/2022,05:04:58,0.001,0.0,0.0,0.0
16/04/2022,05:05:59,0.001,0.0,0.0,0.0
16/04/2022,05:06:59,0.002,0.0,0.0,0.0
16/04/2022,05:07:59,0.002,0.0,0.0,0.0
16/04/2022,05:08:59,0.002,0.0,0.0,0.0
16/04/2022,05:09:58,0.002,0.0,0.0,0.0
16/04/2022,05:10:59,0.002,0.0,0.0,0.0
16/04/2022,05:11:59,0.002,0.0,0.0,0.0
16/04/2022,05:12:58,0.002,0.0,0.0,0.0
16/04/2022,05:14:07,0.002,0.0,0.0,0.0
16/04/2022,05:15:06,0.002,0.0,0.0,0.0
16/04/2022,05:15:59,0.003,0.0,0.0,0.0
16/04/2022,05:16:58,0.003,0.0,0.0,0.0
16/04/2022,05:18:07,0.003,0.0,0.0,0.0
16/04/2022,05:18:58,0.003,0.0,0.0,0.0
16/04/2022,05:19:59,0.002,0.0,0.0,0.0
16/04/2022,05:20:58,0.003,0.0,0.0,0.0
16/04/2022,05:21:59,0.003,0.0,0.0,0.0
16/04/2022,05:22:59,0.004,0.0,0.0,0.0
16/04/2022,05:23:59,0.003,0.0,0.0,0.0
16/04/2022,05:24:59,0.004,0.0,0.0,0.0
16/04/2022,05:25:58,0.005,0.0,0.0,0.0
16/04/2022,05:26:59,0.005,0.0,0.0,0.0
16/04/2022,05:28:06,0.005,0.0,0.0,0.0
16/04/2022,05:29:06,0.005,0.0,0.0,0.0
16/04/2022,05:31:00,0.006,0.0,0.0,0.0
16/04/2022,05:31:50,0.006,0.0,0.0,0.0
16/04/2022,05:32:59,0.007,0.0,0.0,0.0
16/04/2022,05:33:59,0.008,0.0,0.0,0.0
16/04/2022,05:34:59,0.008,0.0,0.0,0.0
16/04/2022,05:35:58,0.008,0.0,0.001,0.001
16/04/2022,05:36:59,0.008,0.0,0.001,0.0
16/04/2022,05:37:58,0.008,0.0,0.001,0.0
16/04/2022,05:38:58,0.010,0.0,0.001,0.0
16/04/2022,05:39:58,0.010,0.0,0.001,0.0
16/04/2022,05:41:07,0.010,0.0,0.001,0.0
16/04/2022,05:41:58,0.010,0.0,0.002,0.001
16/04/2022,05:42:59,0.011,0.0,0.002,0.0
16/04/2022,05:43:59,0.011,0.0,0.002,0.0
16/04/2022,05:44:59,0.012,0.0,0.002,0.0
16/04/2022,05:45:58,0.012,0.0,0.002,0.0
16/04/2022,05:46:52,0.014,0.0,0.003,0.001
16/04/2022,05:48:00,0.014,0.0,0.003,0.0
16/04/2022,05:48:59,0.014,0.0,0.003,0.0
16/04/2022,05:49:58,0.015,0.0,0.003,0.0
16/04/2022,05:51:07,0.015,0.0,0.004,0.001
16/04/2022,05:51:57,0.016,0.0,0.004,0.0
16/04/2022,05:52:59,0.016,0.0,0.004,0.0
16/04/2022,05:54:06,0.018,0.0,0.004,0.0
16/04/2022,05:55:59,0.017,0.0,0.005,0.001
16/04/2022,05:56:59,0.019,0.0,0.005,0.0
16/04/2022,05:57:58,0.019,0.0,0.005,0.0
16/04/2022,05:59:00,0.020,0.0,0.006,0.001
16/04/2022,05:59:58,0.020,0.0,0.006,0.0
16/04/2022,06:00:59,0.021,0.0,0.006,0.0
16/04/2022,06:01:59,0.022,0.0,0.007,0.001
16/04/2022,06:02:59,0.022,0.0,0.007,0.0
16/04/2022,06:03:58,0.023,0.0,0.008,0.001
16/04/2022,06:04:59,0.023,0.0,0.008,0.0
16/04/2022,06:05:59,0.024,0.0,0.008,0.0
16/04/2022,06:07:00,0.024,0.0,0.009,0.001
16/04/2022,06:07:59,0.025,0.0,0.009,0.0
16/04/2022,06:08:58,0.026,0.0,0.01,0.001
16/04/2022,06:10:07,0.027,0.0,0.01,0.0
16/04/2022,06:11:59,0.029,0.0,0.011,0.001
16/04/2022,06:12:59,0.031,0.0,0.011,0.0
16/04/2022,06:13:59,0.031,0.0,0.012,0.001
16/04/2022,06:14:59,0.032,0.0,0.013,0.001
16/04/2022,06:15:58,0.033,0.0,0.013,0.0
16/04/2022,06:16:59,0.035,0.0,0.014,0.001
16/04/2022,06:17:58,0.036,0.0,0.014,0.0
16/04/2022,06:18:59,0.037,0.0,0.015,0.001
16/04/2022,06:19:58,0.038,0.0,0.015,0.0
16/04/2022,06:20:59,0.039,0.0,0.016,0.001
16/04/2022,06:21:59,0.041,0.0,0.017,0.001
16/04/2022,06:22:59,0.042,0.0,0.017,0.0
16/04/2022,06:23:59,0.043,0.0,0.018,0.001
16/04/2022,06:25:07,0.045,0.0,0.019,0.001
16/04/2022,06:26:59,0.047,0.0,0.02,0.001
16/04/2022,06:27:59,0.049,0.0,0.021,0.001
16/04/2022,06:28:58,0.050,0.0,0.022,0.001
16/04/2022,06:29:59,0.051,0.0,0.023,0.001
16/04/2022,06:31:07,0.053,0.0,0.024,0.001
16/04/2022,06:33:00,0.057,0.0,0.026,0.002
16/04/2022,06:34:06,0.059,0.0,0.027,0.001
16/04/2022,06:34:58,0.060,0.0,0.028,0.001
16/04/2022,06:35:58,0.062,0.0,0.029,0.001
16/04/2022,06:37:07,0.064,0.0,0.03,0.001
16/04/2022,06:37:58,0.065,0.0,0.031,0.001
16/04/2022,06:38:59,0.069,0.0,0.032,0.001
16/04/2022,06:39:59,0.070,0.0,0.033,0.001
16/04/2022,06:40:58,0.073,0.0,0.034,0.001
16/04/2022,06:41:59,0.075,0.0,0.035,0.001
16/04/2022,06:42:58,0.077,0.0,0.037,0.002
16/04/2022,06:43:59,0.079,0.0,0.038,0.001
16/04/2022,06:44:58,0.081,0.0,0.039,0.001
16/04/2022,06:45:59,0.083,0.0,0.041,0.002
16/04/2022,06:47:32,0.086,0.0,0.043,0.002
16/04/2022,06:49:01,0.091,0.0,0.045,0.002
16/04/2022,06:49:59,0.093,0.0,0.047,0.002
16/04/2022,06:50:58,0.095,0.0,0.048,0.001
16/04/2022,06:51:59,0.097,0.0,0.05,0.002
16/04/2022,06:52:59,0.101,0.0,0.051,0.001
16/04/2022,06:53:58,0.103,0.0,0.053,0.002
16/04/2022,06:54:59,0.106,0.0,0.055,0.002
16/04/2022,06:55:58,0.107,0.0,0.057,0.002
16/04/2022,06:57:07,0.110,0.0,0.059,0.002
16/04/2022,06:57:58,0.112,0.0,0.06,0.001
16/04/2022,06:58:59,0.115,0.0,0.062,0.002
16/04/2022,06:59:59,0.117,0.0,0.064,0.002
16/04/2022,07:00:58,0.120,0.0,0.066,0.002
16/04/2022,07:01:59,0.122,0.0,0.068,0.002
16/04/2022,07:02:59,0.125,0.0,0.07,0.002
16/04/2022,07:03:58,0.128,0.0,0.072,0.002
16/04/2022,07:04:59,0.130,0.0,0.074,0.002
16/04/2022,07:05:59,0.133,0.0,0.077,0.003
16/04/2022,07:07:07,0.137,0.0,0.079,0.002
16/04/2022,07:08:06,0.139,0.0,0.081,0.002
16/04/2022,07:08:59,0.142,0.0,0.083,0.002
16/04/2022,07:09:59,0.144,0.0,0.086,0.003
16/04/2022,07:10:59,0.148,0.0,0.088,0.002
16/04/2022,07:11:59,0.152,0.0,0.091,0.003
16/04/2022,07:13:07,0.154,0.0,0.094,0.003
16/04/2022,07:14:59,0.161,0.0,0.099,0.005
16/04/2022,07:15:58,0.164,0.0,0.101,0.002
16/04/2022,07:16:59,0.168,0.0,0.104,0.003
16/04/2022,07:17:58,0.170,0.0,0.107,0.003
16/04/2022,07:18:59,0.174,0.0,0.11,0.003
16/04/2022,07:19:59,0.177,0.0,0.113,0.003
16/04/2022,07:20:59,0.180,0.0,0.116,0.003
16/04/2022,07:21:58,0.183,0.0,0.119,0.003
16/04/2022,07:22:59,0.187,0.0,0.122,0.003
16/04/2022,07:23:59,0.190,0.0,0.125,0.003
16/04/2022,07:24:59,0.194,0.0,0.128,0.003
16/04/2022,07:26:07,0.197,0.0,0.132,0.004
16/04/2022,07:26:58,0.202,0.0,0.135,0.003
16/04/2022,07:27:58,0.204,0.0,0.138,0.003
16/04/2022,07:28:59,0.206,0.0,0.141,0.003
16/04/2022,07:29:59,0.210,0.0,0.145,0.004
16/04/2022,07:30:58,0.214,0.0,0.148,0.003
16/04/2022,07:31:59,0.217,0.0,0.152,0.004
16/04/2022,07:32:59,0.222,1.0,0.156,0.004
16/04/2022,07:33:59,0.225,1.0,0.159,0.003
16/04/2022,07:34:58,0.229,1.0,0.163,0.004
16/04/2022,07:36:07,0.234,1.0,0.168,0.005
16/04/2022,07:36:58,0.236,1.0,0.171,0.003
16/04/2022,07:37:59,0.241,1.0,0.175,0.004
16/04/2022,07:38:59,0.245,1.0,0.179,0.004
16/04/2022,07:39:59,0.249,1.0,0.183,0.004
16/04/2022,07:40:59,0.252,1.0,0.187,0.004
16/04/2022,07:41:58,0.256,1.0,0.191,0.004
16/04/2022,07:42:59,0.259,1.0,0.196,0.005
16/04/2022,07:44:00,0.263,1.0,0.2,0.004
16/04/2022,07:44:59,0.266,1.0,0.205,0.005
16/04/2022,07:45:59,0.271,1.0,0.209,0.004
16/04/2022,07:47:00,0.274,1.0,0.214,0.005
16/04/2022,07:47:59,0.276,1.0,0.218,0.004
16/04/2022,07:48:59,0.279,1.0,0.223,0.005
16/04/2022,07:49:58,0.285,1.0,0.227,0.004
16/04/2022,07:50:59,0.288,1.0,0.232,0.005
16/04/2022,07:51:59,0.291,1.0,0.237,0.005
16/04/2022,07:52:59,0.297,1.0,0.242,0.005
16/04/2022,07:53:59,0.303,1.0,0.247,0.005
16/04/2022,07:54:59,0.308,1.0,0.252,0.005
16/04/2022,07:55:59,0.312,1.0,0.257,0.005
16/04/2022,07:56:58,0.317,1.0,0.262,0.005
16/04/2022,07:57:58,0.322,1.0,0.268,0.006
16/04/2022,07:58:59,0.327,1.0,0.273,0.005
16/04/2022,07:59:59,0.332,1.0,0.279,0.006
16/04/2022,08:00:59,0.338,1.0,0.285,0.006
16/04/2022,08:02:07,0.346,1.0,0.291,0.006
16/04/2022,08:04:23,0.359,1.0,0.304,0.013
16/04/2022,08:06:00,0.373,1.0,0.314,0.01
16/04/2022,08:06:59,0.379,1.0,0.32,0.006
16/04/2022,08:07:59,0.384,1.0,0.326,0.006
16/04/2022,08:08:59,0.389,1.0,0.333,0.007
16/04/2022,08:09:59,0.392,1.0,0.339,0.006
16/04/2022,08:10:59,0.399,1.0,0.346,0.007
16/04/2022,08:11:59,0.404,1.0,0.353,0.007
16/04/2022,08:12:59,0.410,1.0,0.359,0.006
16/04/2022,08:13:59,0.415,1.0,0.367,0.008
16/04/2022,08:14:59,0.417,1.0,0.373,0.006
16/04/2022,08:15:59,0.425,1.0,0.38,0.007
16/04/2022,08:16:59,0.433,1.0,0.387,0.007
16/04/2022,08:17:59,0.437,1.0,0.395,0.008
16/04/2022,08:18:59,0.444,1.0,0.402,0.007
16/04/2022,08:19:59,0.451,1.0,0.41,0.008
16/04/2022,08:20:59,0.459,1.0,0.417,0.007
16/04/2022,08:21:59,0.462,1.0,0.425,0.008
16/04/2022,08:22:58,0.466,1.0,0.432,0.007
16/04/2022,08:23:59,0.474,1.0,0.44,0.008
16/04/2022,08:24:59,0.479,1.0,0.448,0.008
16/04/2022,08:25:59,0.486,1.0,0.457,0.009
16/04/2022,08:26:59,0.491,1.0,0.464,0.007
16/04/2022,08:28:07,0.498,1.0,0.474,0.01
16/04/2022,08:28:59,0.505,1.0,0.481,0.007
16/04/2022,08:29:59,0.511,1.0,0.49,0.009
16/04/2022,08:30:59,0.515,1.0,0.498,0.008
16/04/2022,08:31:59,0.519,1.0,0.507,0.009
16/04/2022,08:32:59,0.525,1.0,0.516,0.009
16/04/2022,08:33:59,0.531,1.0,0.524,0.008
16/04/2022,08:34:59,0.538,1.0,0.533,0.009
16/04/2022,08:35:59,0.546,1.0,0.542,0.009
16/04/2022,08:36:59,0.551,1.0,0.551,0.009
16/04/2022,08:38:07,0.557,1.0,0.562,0.011
16/04/2022,08:38:58,0.559,1.0,0.57,0.008
16/04/2022,08:40:00,0.569,1.0,0.579,0.009
16/04/2022,08:41:07,0.576,1.0,0.59,0.011
16/04/2022,08:41:58,0.582,1.0,0.598,0.008
16/04/2022,08:42:58,0.589,1.0,0.608,0.01
16/04/2022,08:43:59,0.598,1.0,0.618,0.01
16/04/2022,08:44:58,0.605,1.0,0.628,0.01
16/04/2022,08:45:59,0.614,1.0,0.638,0.01
16/04/2022,08:46:59,0.622,1.0,0.648,0.01
16/04/2022,08:47:58,0.632,1.0,0.659,0.011
16/04/2022,08:48:59,0.634,1.0,0.669,0.01
16/04/2022,08:50:07,0.639,1.0,0.681,0.012
16/04/2022,08:52:00,0.656,2.0,0.702,0.021
16/04/2022,08:52:59,0.660,2.0,0.713,0.011
16/04/2022,08:54:07,0.665,2.0,0.725,0.012
16/04/2022,08:54:58,0.674,2.0,0.735,0.01
16/04/2022,08:55:59,0.682,2.0,0.746,0.011
16/04/2022,08:57:07,0.688,2.0,0.759,0.013
16/04/2022,08:57:58,0.695,2.0,0.769,0.01
16/04/2022,08:58:59,0.696,2.0,0.781,0.012
16/04/2022,08:59:59,0.705,2.0,0.793,0.012
16/04/2022,09:00:59,0.720,2.0,0.804,0.011
16/04/2022,09:01:59,0.722,2.0,0.817,0.013
16/04/2022,09:02:59,0.731,2.0,0.829,0.012
16/04/2022,09:03:59,0.738,2.0,0.841,0.012
16/04/2022,09:04:59,0.744,2.0,0.853,0.012
16/04/2022,09:06:12,0.750,2.0,0.868,0.015
16/04/2022,09:08:08,0.769,2.0,0.893,0.025
16/04/2022,09:08:59,0.777,2.0,0.904,0.011
16/04/2022,09:09:52,0.780,2.0,0.915,0.011
16/04/2022,09:11:00,0.786,2.0,0.93,0.015
16/04/2022,09:11:59,0.791,2.0,0.943,0.013
16/04/2022,09:12:59,0.799,2.0,0.956,0.013
16/04/2022,09:13:59,0.808,2.0,0.969,0.013
16/04/2022,09:14:59,0.808,2.0,0.983,0.014
16/04/2022,09:15:59,0.824,2.0,0.996,0.013
16/04/2022,09:16:59,0.833,2.0,1.011,0.015
16/04/2022,09:17:59,0.834,2.0,1.024,0.013
16/04/2022,09:18:59,0.813,2.0,1.038,0.014
16/04/2022,09:20:07,0.828,2.0,1.053,0.015
16/04/2022,09:20:58,0.846,2.0,1.066,0.013
16/04/2022,09:22:00,0.864,2.0,1.08,0.014
16/04/2022,09:22:58,0.874,2.0,1.094,0.014
16/04/2022,09:23:59,0.885,2.0,1.109,0.015
16/04/2022,09:24:59,0.899,2.0,1.124,0.015
16/04/2022,09:25:59,0.902,2.0,1.139,0.015
16/04/2022,09:26:59,0.915,2.0,1.154,0.015
16/04/2022,09:27:59,0.915,2.0,1.17,0.016
16/04/2022,09:28:59,0.921,2.0,1.184,0.014
16/04/2022,09:29:59,0.927,2.0,1.2,0.016
16/04/2022,09:30:59,0.931,2.0,1.215,0.015
16/04/2022,09:32:03,0.945,2.0,1.232,0.017
16/04/2022,09:32:59,0.961,2.0,1.247,0.015
16/04/2022,09:33:59,0.966,2.0,1.263,0.016
16/04/2022,09:35:07,0.977,2.0,1.282,0.019
16/04/2022,09:35:58,0.983,2.0,1.295,0.013
16/04/2022,09:36:59,0.988,2.0,1.312,0.017
16/04/2022,09:38:01,0.996,2.0,1.329,0.017
16/04/2022,09:38:59,1.005,2.0,1.345,0.016
16/04/2022,09:39:59,0.995,2.0,1.362,0.017
16/04/2022,09:40:59,0.998,2.0,1.378,0.016
16/04/2022,09:41:59,0.992,2.0,1.395,0.017
16/04/2022,09:42:59,1.002,2.0,1.411,0.016
16/04/2022,09:43:59,1.012,2.0,1.429,0.018
16/04/2022,09:44:59,1.002,2.0,1.445,0.016
16/04/2022,09:45:59,1.011,2.0,1.461,0.016
16/04/2022,09:46:59,1.009,2.0,1.479,0.018
16/04/2022,09:48:07,1.005,2.0,1.497,0.018
16/04/2022,09:49:05,1.030,2.0,1.514,0.017
16/04/2022,09:49:59,1.018,2.0,1.53,0.016
16/04/2022,09:50:59,1.027,2.0,1.546,0.016
16/04/2022,09:51:59,1.028,2.0,1.563,0.017
16/04/2022,09:52:59,1.048,2.0,1.58,0.017
16/04/2022,09:54:08,1.054,2.0,1.601,0.021
16/04/2022,09:56:00,1.049,2.0,1.633,0.032
16/04/2022,09:56:59,1.063,2.0,1.651,0.018
16/04/2022,09:57:59,1.091,3.0,1.669,0.018
16/04/2022,09:58:59,1.100,3.0,1.687,0.018
16/04/2022,09:59:59,1.120,3.0,1.706,0.019
16/04/2022,10:00:59,1.136,3.0,1.724,0.018
16/04/2022,10:01:59,1.149,3.0,1.744,0.02
16/04/2022,10:02:59,1.163,3.0,1.762,0.018
16/04/2022,10:04:07,1.157,3.0,1.784,0.022
16/04/2022,10:05:00,1.163,3.0,1.802,0.018
16/04/2022,10:06:00,1.179,3.0,1.821,0.019
16/04/2022,10:07:07,1.194,3.0,1.843,0.022
16/04/2022,10:07:59,1.197,3.0,1.86,0.017
16/04/2022,10:08:59,1.191,3.0,1.881,0.021
16/04/2022,10:09:59,1.196,3.0,1.9,0.019
16/04/2022,10:10:59,1.199,3.0,1.921,0.021
16/04/2022,10:11:59,1.197,3.0,1.94,0.019
16/04/2022,10:12:59,1.195,3.0,1.961,0.021
16/04/2022,10:13:59,1.213,3.0,1.98,0.019
16/04/2022,10:15:00,1.210,3.0,2.001,0.021
16/04/2022,10:15:59,1.213,3.0,2.021,0.02
16/04/2022,10:16:59,1.226,3.0,2.041,0.02
16/04/2022,10:17:59,1.244,3.0,2.061,0.02
16/04/2022,10:18:59,1.260,3.0,2.082,0.021
16/04/2022,10:20:08,1.255,3.0,2.107,0.025
16/04/2022,10:20:59,1.261,3.0,2.124,0.017
16/04/2022,10:21:59,1.280,3.0,2.145,0.021
16/04/2022,10:23:08,1.291,3.0,2.17,0.025
16/04/2022,10:23:59,1.290,3.0,2.189,0.019
16/04/2022,10:24:59,1.306,3.0,2.211,0.022
16/04/2022,10:26:08,1.313,3.0,2.235,0.024
16/04/2022,10:27:59,1.312,3.0,2.276,0.041
16/04/2022,10:28:59,1.304,3.0,2.297,0.021
16/04/2022,10:29:59,1.296,3.0,2.319,0.022